West Palm Beach, FL

3:01 PM EDT on July 26, 2017 (GMT -0400)
Palm Beach International

Weather History for KPBI - January, 2011

Change the Weather History Date:

Thursday, January 20, 2011

  Actual Average Record
Temperature  
Mean Temperature 75 °F 66 °F  
Max Temperature 85 °F 75 °F 86 °F (1947)
Min Temperature 64 °F 57 °F 27 °F (1977)
Degree Days  
Heating Degree Days 0 3  
Month to date heating degree days 39 60  
Since 1 July heating degree days 250 131  
Cooling Degree Days 10 3  
Month to date cooling degree days 85 67  
Year to date cooling degree days 85 67  
Growing Degree Days 24 (Base 50)    
Moisture  
Dew Point 66 °F    
Average Humidity 74    
Maximum Humidity 100    
Minimum Humidity 48    
Precipitation  
Precipitation 0.00 in 0.09 in 5.16 in (1983)
Month to date precipitation 0.47 2.09  
Year to date precipitation 0.47 2.09  
Snow  
Snow 0.00 in - - ()
Month to date snowfall 0.0  
Since 1 July snowfall 0.0  
Snow Depth 0.00 in    
Sea Level Pressure  
Sea Level Pressure 29.98 in    
Wind  
Wind Speed 5 mph (South)    
Max Wind Speed 12 mph    
Max Gust Speed 16 mph    
Visibility 8 miles    
Events      
T = Trace of Precipitation, MM = Missing Value Source: NWS Daily Summary

Daily Weather History Graph

Daily Weather History Graph

Search for Another Location

Airport or City:

Trip Planner

Search our weather history database for the weather conditions in past years. The results will help you decide how hot, cold, wet, or windy it might be!

Date:

Astronomy

Jan. 20, 2011 Rise Set
Actual Time 7:09 AM EST 5:53 PM EST
Civil Twilight 6:45 AM EST 6:18 PM EST
Nautical Twilight 6:16 AM EST 6:46 PM EST
Astronomical Twilight 5:48 AM EST 7:14 PM EST
Moon 7:03 PM EST (1/20) 7:34 AM EST (1/20)
Length of Visible Light 11h 33m
Length of Day
10h 43m
Full, 99% of the Moon is Illuminated
Jan 20
Full
Jan 26
Last Quarter
Feb 2
New
Feb 11
First Quarter
Feb 18
Full

Hourly Weather History & Observations

Time (EST) Temp. Heat Index Dew Point Humidity Pressure Visibility Wind Dir Wind Speed Gust Speed Precip Events Conditions
12:53 AM 66.0 °F - 64.0 °F 93% 30.01 in 9.0 mi Calm Calm - N/A   Partly Cloudy
1:53 AM 66.0 °F - 64.0 °F 93% 30.01 in 6.0 mi Calm Calm - N/A   Clear
2:38 AM 64.4 °F - 62.6 °F 94% 30.01 in 2.5 mi Calm Calm - N/A   Partly Cloudy
2:53 AM 64.0 °F - 64.0 °F 100% 30.01 in 2.5 mi Calm Calm - N/A   Partly Cloudy
3:53 AM 64.9 °F - 64.0 °F 97% 30.00 in 2.5 mi Calm Calm - N/A   Partly Cloudy
4:20 AM 69.8 °F - 68.0 °F 94% 29.99 in 4.0 mi East 6.9 mph - N/A   Partly Cloudy
4:53 AM 70.0 °F - 69.1 °F 97% 29.99 in 9.0 mi East 6.9 mph - N/A   Scattered Clouds
5:53 AM 70.0 °F - 68.0 °F 93% 30.00 in 10.0 mi East 5.8 mph - N/A   Partly Cloudy
6:53 AM 70.0 °F - 68.0 °F 93% 30.01 in 9.0 mi SE 5.8 mph - N/A   Partly Cloudy
7:53 AM 66.9 °F - 66.0 °F 97% 30.02 in 5.0 mi Calm Calm - N/A   Partly Cloudy
8:23 AM 69.8 °F - 69.8 °F 100% 30.03 in 2.0 mi Calm Calm - N/A   Partly Cloudy
8:32 AM 69.8 °F - 68.0 °F 94% 30.03 in 4.0 mi Calm Calm - N/A   Partly Cloudy
8:53 AM 71.1 °F - 69.1 °F 93% 30.03 in 4.0 mi Calm Calm - N/A   Partly Cloudy
9:53 AM 77.0 °F - 70.0 °F 79% 30.05 in 10.0 mi SSW 5.8 mph - N/A   Scattered Clouds
10:53 AM 80.1 °F 81.7 °F 64.0 °F 58% 30.04 in 10.0 mi WSW 4.6 mph - N/A   Scattered Clouds
11:53 AM 80.1 °F 81.5 °F 63.0 °F 56% 30.01 in 10.0 mi Calm Calm - N/A   Scattered Clouds
12:53 PM 81.0 °F 82.2 °F 63.0 °F 54% 29.99 in 10.0 mi SW 6.9 mph - N/A   Mostly Cloudy
1:53 PM 84.0 °F 84.9 °F 63.0 °F 49% 29.96 in 10.0 mi SW 8.1 mph - N/A   Mostly Cloudy
2:53 PM 84.0 °F 84.9 °F 63.0 °F 49% 29.94 in 10.0 mi SW 6.9 mph - N/A   Mostly Cloudy
3:53 PM 79.0 °F - 66.0 °F 64% 29.94 in 10.0 mi SE 10.4 mph - N/A   Scattered Clouds
4:53 PM 78.1 °F - 64.9 °F 64% 29.93 in 10.0 mi SSE 9.2 mph - N/A   Scattered Clouds
5:53 PM 75.9 °F - 66.0 °F 71% 29.93 in 10.0 mi SSE 9.2 mph - N/A   Scattered Clouds
6:53 PM 75.0 °F - 66.9 °F 76% 29.93 in 10.0 mi South 8.1 mph - N/A   Scattered Clouds
7:53 PM 75.0 °F - 69.1 °F 82% 29.94 in 10.0 mi South 9.2 mph - N/A   Mostly Cloudy
8:53 PM 73.0 °F - 66.9 °F 81% 29.94 in 10.0 mi SSE 10.4 mph - N/A   Scattered Clouds
9:53 PM 72.0 °F - 69.1 °F 91% 29.93 in 10.0 mi South 6.9 mph - N/A   Scattered Clouds
10:53 PM 71.1 °F - 68.0 °F 90% 29.93 in 10.0 mi South 6.9 mph - N/A   Partly Cloudy
11:53 PM 70.0 °F - 68.0 °F 93% 29.91 in 10.0 mi South 3.5 mph - N/A   Partly Cloudy